Location: Carella
(45.8167°N, 9.2667°E)
Time: 17:03:47
(UTC+00:00)

STARLINK-1096 - Pass Details

Date: 30 March 2020
Orbit: 548 x 551 km, 53.0° (Epoch: 29 May)

Event Time Altitude Azimuth Distance (km) Brightness Sun altitude
Rises 18:28:52 0° 301° (WNW) 2,727 8.9 -7.6°
Reaches altitude 10° 18:31:07 10° 302° (WNW) 1,830 7.7 -8.0°
Maximum altitude 18:35:17 87° 32° (NNE) 557 3.6 -8.7°
Enters shadow 18:39:10 12° 121° (ESE) 1,715 5.5 -9.4°
